STARLINK-33585 (62782 NORAD) Tracking and Keplerian Element Data

This shows tracking and keplerian element data for the satellite.

Feedback or suggestion? Click here.




ElementValue
Catalog62782
NameSTARLINK-33585
Epoch Orbit310
Epoch Day35.16668981
Epoch Year2025
RAAN19.0234
Inclination53.1597
Eccentricity0.000119
Argument of Perigee78.9511
Mean Anonmoly117.6127
Mean Motion15.78007791
Decay Rate-0.01209155
L11 62782U 25015AA 25035.16668981 -.01209155 00000+0 -78659-2 0 9999
L22 62782 53.1597 19.0234 0001190 78.9511 117.6127 15.78007791 3102



Live tracking and technical data element details for STARLINK-33585 (NORAD 62782). STARLINK-33585 can be tracked NOW for your location showing map with azimuth and elevation plus other details from your city location.







IsCatalogInMostPopularTable: catalog: 62782, numindb: 4
Update: records affected: 1



GetName: 62782 STARLINK-33585

Hit Count: updated at: Sun, 09 Feb 2025 14:05:52 GMT